Location: Atherton
(17.2661°S, 145.4859°E)
Time: 22:42:31
(UTC+10:00)

Transit 2A - Pass Details

Date: 21 June 2025
Orbit: 598 x 948 km, 66.7° (Epoch: 19 July)

Event Time Altitude Azimuth Distance (km) Brightness Sun altitude
Rises 10:18:11 0° 342° (NNW) 3,340 9.7 39.6°
Reaches altitude 10° 10:20:31 10° 343° (NNW) 2,461 9.2 39.9°
Maximum altitude 10:26:17 81° 69° (ENE) 915 7.3 40.7°
Drops below altitude 10° 10:32:31 10° 156° (SSE) 2,656 8.6 41.6°
Sets 10:35:08 0° 157° (SSE) 3,622 9.2 41.9°
